Weather in Borinskoe

Russia / Lipetsk Oblast     52°27′27″N   39°22′20″E
temp.,
°C
wind,
m/s
gust,
m/s
humid.,
%
clouds,
%
prec.,
mm/h
press.,
hPa
HPBL,
m
6 august, fri
fri600:00+21s2245100 0.0 101415
03:00+21ese224652 0.0 101327
06:00+21se364946 0.0 1013151
09:00+27sse583391 0.0 1013726
12:00+31sse682725 0.0 10112315
15:00+33s6724100 0.0 10093102
18:00+29sse6113399 0.1 1008576
21:00+26se48484 0.3 1009126
7 august, sat
sat700:00+25se7163722 0.0 1009506
03:00+23sse5153515 0.0 1010448
06:00+21se374852 0.1 1011163
09:00+27s6102884 0.1 1011787
12:00+29s3427100 0.0 10111139
15:00+32se5820100 0.0 10102186
18:00+32se682196 0.0 1009950
21:00+28se61527100 0.0 1009482
8 august, sun
sun800:00+25sse51429100 0.0 1011452
03:00+21sse333663 0.0 101233
06:00+22se2241100 0.1 101343
09:00+26se2332100 0.1 1013326
12:00+30wsw562697 0.0 10141100
15:00+28n4433100 0.0 1014229
18:00+31sse5724100 0.0 1015847
21:00+26s41333100 0.0 1016388
9 august, mon
mon900:00+25w2235100 0.0 101726
03:00+24se2236100 0.0 101831
06:00+25se3435100 0.0 101886
09:00+25ene3837100 0.0 1018278
12:00+29ese4832100 0.0 10181027
15:00+28e4834100 0.0 1018811
18:00+26e5945100 0.0 1018338
21:00+24ne3748100 0.0 1018164
10 august, tue
tue1000:00+23ne3848100 0.0 1017192
03:00+22nne3651100 0.0 1017127
06:00+22n4752100 0.1 1016183
09:00+22nne71152100 0.3 1016480
12:00+25ne6840100 0.0 1014428
15:00+27ene693282 0.0 1013772
18:00+28ne71136100 0.0 1012493
21:00+24n5854100 0.0 1012173